sat.trackr.live / text

‹ back to catalog

STARLINK-30776

NORAD 58136 · 2023-162U

PAYLOAD ACTIVE UNKNOWN

§ Identity

Operator
Country
US
Launch date
2023-10-22
Launch site
AFETR
Launch vehicle
Mass (kg)
RCS (m²)

Purposes: comms

External: N2YO · Heavens-Above · Gunter

§ Orbital elements

Epoch: 2026-09-20T22:00:03.000096Z

Period
91.75 min
Inclination
42.9835°
Eccentricity
0.0030766
Mean motion
15.69553822 rev/d
Perigee alt
339.4 km
Apogee alt
380.9 km
Semi-major
6,738.3 km
B*
3.3930e-3
RAAN
83.8277°
Arg perigee
291.0763°
Mean anomaly
49.4027°
Rev number
595

§ Raw data

STARLINK-307761 58136U 23162U   26263.91670139  .00445511  00000+0  33930-2 0  99912 58136  42.9835  83.8277 0030766 291.0763  49.4027 15.69553822  5952

JSON: /api/v1/satellites/58136 · /tle

For live sub-satellite position, see the globe view (requires WebGL).

§ Visibility from observer

Set your observer location to see the next 7 days of passes ≥ 10°. The values pass through the URL so the page stays shareable.

No JS? Fill the form by hand. The geolocation button needs JavaScript.